TRA86Z EHAM-LIPX

Flight info

Callsign TRA86Z
Flight time 1h 20m
Altitude 35000
Route EDUPO Z739 MISGO DCT ASBON DCT TUSUK DCT ULNOK L607 ABUKA DCT TEDGO DCT BATUB DCT TIRUL M738 NATAG/N0371F190 M738 LORLO Q49 MOVOR T897 ANJAT
Aircraft A21N/M-SDE2E3FGHIRWXY/LB1

Departure

Time 2026-04-29 13:08
Airport Amsterdam Airport Schiphol (EHAM)

Arrival

Time 2026-04-29 14:29
Airport Verona Villafranca Valerio Catullo Airport (LIPX)
Time Latitude Longitude Altitude Speed Heading
2026-04-29 12:14 52.30429 4.76603 4 ft 0 kts 58°
2026-04-29 12:45 52.30419 4.76573 4 ft 4 kts 75°
2026-04-29 12:45 52.30420 4.76536 4 ft 4 kts 128°
2026-04-29 12:45 52.30424 4.76527 4 ft 1 kts 135°
2026-04-29 12:50 52.30423 4.76529 4 ft 1 kts 138°
2026-04-29 12:51 52.30405 4.76546 4 ft 5 kts 151°
2026-04-29 12:51 52.30368 4.76579 4 ft 8 kts 153°
2026-04-29 12:51 52.30312 4.76561 4 ft 10 kts 222°
2026-04-29 12:51 52.30271 4.76460 4 ft 11 kts 238°
2026-04-29 12:52 52.30226 4.76342 4 ft 13 kts 238°
2026-04-29 12:52 52.30175 4.76208 4 ft 15 kts 237°
2026-04-29 12:52 52.30117 4.76060 4 ft 16 kts 238°
2026-04-29 12:52 52.30055 4.75897 4 ft 17 kts 238°
2026-04-29 12:53 52.29988 4.75722 4 ft 19 kts 238°
2026-04-29 12:53 52.29918 4.75537 4 ft 20 kts 238°
2026-04-29 12:53 52.29845 4.75347 4 ft 17 kts 238°
2026-04-29 12:53 52.29859 4.75162 4 ft 19 kts 312°
2026-04-29 12:54 52.29948 4.74999 4 ft 20 kts 311°
2026-04-29 12:54 52.30040 4.74827 5 ft 21 kts 311°
2026-04-29 12:54 52.30141 4.74643 15 ft 23 kts 311°
2026-04-29 12:54 52.30248 4.74444 15 ft 24 kts 311°
2026-04-29 12:55 52.30343 4.74261 4 ft 18 kts 310°
2026-04-29 12:55 52.30459 4.74197 4 ft 20 kts
2026-04-29 12:55 52.30600 4.74210 4 ft 21 kts
2026-04-29 12:55 52.30747 4.74223 4 ft 22 kts
2026-04-29 12:56 52.30905 4.74238 4 ft 23 kts
2026-04-29 12:56 52.31068 4.74254 4 ft 24 kts
2026-04-29 12:56 52.31240 4.74269 4 ft 25 kts
2026-04-29 12:56 52.31419 4.74286 4 ft 24 kts
2026-04-29 12:57 52.31586 4.74301 5 ft 24 kts
2026-04-29 12:57 52.31760 4.74319 4 ft 26 kts
2026-04-29 12:57 52.31930 4.74333 4 ft 23 kts
2026-04-29 12:57 52.32020 4.74309 4 ft 12 kts 310°
2026-04-29 12:58 52.32032 4.74171 4 ft 13 kts 272°
2026-04-29 12:58 52.32038 4.74013 3 ft 15 kts 274°
2026-04-29 12:58 52.32044 4.73837 5 ft 16 kts 272°
2026-04-29 12:58 52.32050 4.73643 5 ft 18 kts 273°
2026-04-29 12:59 52.32062 4.73435 4 ft 19 kts 289°
2026-04-29 12:59 52.32149 4.73273 4 ft 20 kts 319°
2026-04-29 12:59 52.32257 4.73116 4 ft 21 kts 319°
2026-04-29 12:59 52.32373 4.72955 4 ft 22 kts 320°
2026-04-29 13:00 52.32494 4.72787 4 ft 24 kts 319°
2026-04-29 13:00 52.32621 4.72608 4 ft 25 kts 319°
2026-04-29 13:00 52.32744 4.72400 5 ft 26 kts 311°
2026-04-29 13:00 52.32865 4.72176 4 ft 27 kts 311°
2026-04-29 13:01 52.32993 4.71939 4 ft 28 kts 311°
2026-04-29 13:01 52.33098 4.71743 4 ft 22 kts 311°
2026-04-29 13:01 52.33150 4.71561 4 ft 18 kts 255°
2026-04-29 13:01 52.33078 4.71422 5 ft 12 kts 220°
2026-04-29 13:02 52.33012 4.71326 4 ft 13 kts 221°
2026-04-29 13:02 52.32959 4.71251 4 ft 7 kts 221°
2026-04-29 13:02 52.32919 4.71194 4 ft 9 kts 221°
2026-04-29 13:02 52.32900 4.71167 4 ft 0 kts 223°
2026-04-29 13:04 52.32890 4.71152 4 ft 5 kts 223°
2026-04-29 13:04 52.32867 4.71098 4 ft 7 kts 248°
2026-04-29 13:04 52.32862 4.71061 4 ft 0 kts 265°
2026-04-29 13:06 52.32861 4.71053 4 ft 2 kts 266°
2026-04-29 13:06 52.32862 4.71017 4 ft 4 kts 274°
2026-04-29 13:06 52.32867 4.70948 3 ft 8 kts 281°
2026-04-29 13:07 52.32919 4.70897 3 ft 11 kts
2026-04-29 13:07 52.33028 4.70909 2 ft 30 kts
2026-04-29 13:07 52.33481 4.70950 3 ft 96 kts
2026-04-29 13:07 52.34335 4.71030 2 ft 148 kts
2026-04-29 13:08 52.35437 4.71096 312 ft 160 kts
2026-04-29 13:08 52.36534 4.71185 878 ft 159 kts 11°
2026-04-29 13:08 52.37647 4.71345 1459 ft 165 kts 12°
2026-04-29 13:08 52.38850 4.71471 1976 ft 181 kts 10°
2026-04-29 13:09 52.40167 4.71587 2516 ft 199 kts 10°
2026-04-29 13:09 52.41616 4.71780 2932 ft 222 kts 14°
2026-04-29 13:09 52.43098 4.72647 3406 ft 232 kts 43°
2026-04-29 13:09 52.44019 4.74798 3987 ft 233 kts 73°
2026-04-29 13:10 52.44191 4.77432 4838 ft 235 kts 98°
2026-04-29 13:10 52.43590 4.79971 5602 ft 244 kts 116°
2026-04-29 13:10 52.42725 4.82349 6422 ft 248 kts 117°
2026-04-29 13:10 52.41839 4.84817 7214 ft 253 kts 117°
2026-04-29 13:11 52.40957 4.87344 7985 ft 258 kts 116°
2026-04-29 13:11 52.40071 4.89934 8783 ft 263 kts 116°
2026-04-29 13:11 52.39156 4.92587 9598 ft 269 kts 116°
2026-04-29 13:11 52.38240 4.95253 10373 ft 274 kts 116°
2026-04-29 13:12 52.37283 4.98058 10789 ft 293 kts 116°
2026-04-29 13:12 52.36252 5.01084 11085 ft 314 kts 116°
2026-04-29 13:12 52.35149 5.04321 11369 ft 334 kts 116°
2026-04-29 13:12 52.33991 5.07699 11635 ft 353 kts 117°
2026-04-29 13:13 52.32527 5.11014 12131 ft 365 kts 128°
2026-04-29 13:13 52.30825 5.14141 12756 ft 371 kts 129°
2026-04-29 13:13 52.29072 5.17284 13435 ft 375 kts 129°
2026-04-29 13:13 52.27326 5.20428 14093 ft 378 kts 129°
2026-04-29 13:14 52.25544 5.23646 14637 ft 382 kts 129°
2026-04-29 13:14 52.23839 5.26998 15191 ft 383 kts 123°
2026-04-29 13:14 52.22300 5.30505 15689 ft 386 kts 122°
2026-04-29 13:14 52.20741 5.34120 16200 ft 390 kts 122°
2026-04-29 13:15 52.19171 5.37757 16682 ft 394 kts 122°
2026-04-29 13:15 52.17577 5.41433 17174 ft 397 kts 122°
2026-04-29 13:15 52.15971 5.45123 17662 ft 401 kts 122°
2026-04-29 13:15 52.14370 5.48792 18079 ft 406 kts 122°
2026-04-29 13:16 52.12716 5.52578 18524 ft 410 kts 122°
2026-04-29 13:16 52.11048 5.56389 18927 ft 414 kts 122°
2026-04-29 13:16 52.09391 5.60170 19348 ft 416 kts 122°
2026-04-29 13:16 52.07697 5.64027 19798 ft 417 kts 122°
2026-04-29 13:17 52.05973 5.67835 20252 ft 420 kts 126°
2026-04-29 13:17 52.04077 5.71463 20698 ft 422 kts 128°
2026-04-29 13:17 52.02140 5.75073 21145 ft 424 kts 128°
2026-04-29 13:17 52.00215 5.78653 21579 ft 426 kts 128°
2026-04-29 13:18 51.98258 5.82295 22023 ft 427 kts 128°
2026-04-29 13:18 51.96289 5.85959 22481 ft 429 kts 127°
2026-04-29 13:18 51.94350 5.89581 22936 ft 431 kts 127°
2026-04-29 13:18 51.92373 5.93275 23383 ft 433 kts 127°
2026-04-29 13:19 51.90392 5.96973 23837 ft 435 kts 127°
2026-04-29 13:19 51.88396 6.00690 24214 ft 438 kts 127°
2026-04-29 13:19 51.86388 6.04419 24552 ft 441 kts 127°
2026-04-29 13:19 51.84386 6.08119 24906 ft 443 kts 127°
2026-04-29 13:20 51.82331 6.11889 25279 ft 445 kts 127°
2026-04-29 13:20 51.80277 6.15650 25653 ft 446 kts 127°
2026-04-29 13:20 51.78243 6.19371 26013 ft 447 kts 127°
2026-04-29 13:20 51.76172 6.23154 26364 ft 449 kts 127°
2026-04-29 13:21 51.74089 6.26950 26701 ft 450 kts 127°
2026-04-29 13:21 51.72007 6.30743 27069 ft 451 kts 127°
2026-04-29 13:21 51.69926 6.34531 27491 ft 449 kts 127°
2026-04-29 13:21 51.67877 6.38250 27932 ft 448 kts 127°
2026-04-29 13:22 51.65811 6.42004 28029 ft 446 kts 129°
2026-04-29 13:22 51.63762 6.45716 28760 ft 445 kts 126°
2026-04-29 13:22 51.61706 6.49440 29253 ft 442 kts 126°
2026-04-29 13:22 51.59659 6.53142 29656 ft 441 kts 126°
2026-04-29 13:23 51.57643 6.56779 30074 ft 439 kts 126°
2026-04-29 13:23 51.55610 6.60441 30500 ft 437 kts 126°
2026-04-29 13:23 51.53574 6.64110 30848 ft 436 kts 126°
2026-04-29 13:23 51.51573 6.67706 31157 ft 435 kts 126°
2026-04-29 13:24 51.49552 6.71337 31468 ft 435 kts 126°
2026-04-29 13:24 51.47527 6.74967 31802 ft 434 kts 126°
2026-04-29 13:24 51.45510 6.78576 32084 ft 434 kts 126°
2026-04-29 13:24 51.43492 6.82184 32386 ft 434 kts 126°
2026-04-29 13:25 51.41453 6.85763 32680 ft 436 kts 128°
2026-04-29 13:25 51.36559 6.91649 33268 ft 446 kts 141°
2026-04-29 13:25 51.33913 6.94274 33524 ft 446 kts 142°
2026-04-29 13:26 51.31272 6.96886 33798 ft 446 kts 141°
2026-04-29 13:26 51.29523 6.98630 33974 ft 445 kts 141°
2026-04-29 13:26 51.26041 7.02110 34298 ft 445 kts 141°
2026-04-29 13:26 51.24260 7.03892 34434 ft 444 kts 141°
2026-04-29 13:27 51.21670 7.06486 34611 ft 445 kts 141°
2026-04-29 13:27 51.19039 7.09119 34768 ft 445 kts 142°
2026-04-29 13:27 51.16403 7.11753 34931 ft 446 kts 142°
2026-04-29 13:27 51.13772 7.14375 35099 ft 446 kts 142°
2026-04-29 13:28 51.08510 7.19629 35322 ft 449 kts 142°
2026-04-29 13:28 51.03190 7.24919 35341 ft 450 kts 142°
2026-04-29 13:29 50.97899 7.30164 35320 ft 449 kts 142°
2026-04-29 13:29 50.92577 7.35415 35317 ft 450 kts 143°
2026-04-29 13:30 50.87288 7.40617 35314 ft 450 kts 143°
2026-04-29 13:30 50.81947 7.45848 35311 ft 450 kts 143°
2026-04-29 13:31 50.76649 7.51042 35327 ft 450 kts 143°
2026-04-29 13:31 50.71314 7.56320 35308 ft 451 kts 141°
2026-04-29 13:32 50.66085 7.61737 35311 ft 451 kts 141°
2026-04-29 13:32 50.60814 7.67193 35303 ft 451 kts 142°
2026-04-29 13:33 50.55583 7.72590 35306 ft 452 kts 142°
2026-04-29 13:33 50.50335 7.77991 35294 ft 452 kts 142°
2026-04-29 13:34 50.45056 7.83407 35297 ft 451 kts 142°
2026-04-29 13:34 50.39814 7.88771 35317 ft 452 kts 142°
2026-04-29 13:35 50.34527 7.94169 35299 ft 454 kts 142°
2026-04-29 13:35 50.29242 7.99551 35296 ft 454 kts 142°
2026-04-29 13:36 50.23937 8.04942 35305 ft 454 kts 142°
2026-04-29 13:36 50.18639 8.10298 35308 ft 454 kts 142°
2026-04-29 13:37 50.13288 8.15648 35313 ft 455 kts 144°
2026-04-29 13:37 50.07857 8.20709 35321 ft 456 kts 145°
2026-04-29 13:38 50.02378 8.25773 35333 ft 458 kts 145°
2026-04-29 13:38 49.96910 8.30823 35324 ft 459 kts 145°
2026-04-29 13:39 49.91432 8.35865 35273 ft 458 kts 145°
2026-04-29 13:39 49.85966 8.40949 35268 ft 459 kts 143°
2026-04-29 13:40 49.81111 8.47294 35267 ft 455 kts 133°
2026-04-29 13:40 49.76547 8.54027 35267 ft 454 kts 133°
2026-04-29 13:41 49.71494 8.60009 35255 ft 461 kts 150°
2026-04-29 13:41 49.68524 8.61824 35260 ft 466 kts 162°
2026-04-29 13:41 49.65341 8.62865 35266 ft 467 kts 168°
2026-04-29 13:42 49.58955 8.64517 35261 ft 465 kts 169°
2026-04-29 13:42 49.52565 8.66251 35257 ft 465 kts 168°
2026-04-29 13:43 49.46257 8.68265 35253 ft 464 kts 160°
2026-04-29 13:43 49.40314 8.72152 35252 ft 464 kts 154°
2026-04-29 13:44 49.34440 8.76314 35247 ft 468 kts 154°
2026-04-29 13:44 49.28507 8.80442 35238 ft 467 kts 155°
2026-04-29 13:45 49.25525 8.82504 33644 ft 485 kts 154°
2026-04-29 13:45 49.22503 8.84586 34155 ft 460 kts 154°
2026-04-29 13:45 49.19675 8.86536 34883 ft 449 kts 154°
2026-04-29 13:45 49.16826 8.88501 35133 ft 448 kts 156°
2026-04-29 13:46 49.11080 8.92456 35231 ft 456 kts 156°
2026-04-29 13:46 49.05254 8.96460 35229 ft 467 kts 156°
2026-04-29 13:47 48.99290 9.00536 35212 ft 471 kts 156°
2026-04-29 13:47 48.93289 9.04632 35195 ft 474 kts 158°
2026-04-29 13:48 48.87235 9.08756 35201 ft 476 kts 158°
2026-04-29 13:48 48.81211 9.12842 35204 ft 476 kts 158°
2026-04-29 13:49 48.75186 9.16924 35204 ft 476 kts 158°
2026-04-29 13:49 48.69110 9.21023 35198 ft 477 kts 159°
2026-04-29 13:50 48.63057 9.25103 35201 ft 477 kts 159°
2026-04-29 13:50 48.56824 9.28521 35198 ft 475 kts 164°
2026-04-29 13:51 48.50573 9.31715 35182 ft 475 kts 164°
2026-04-29 13:51 48.44278 9.34930 35179 ft 476 kts 164°
2026-04-29 13:52 48.38060 9.38113 35177 ft 475 kts 164°
2026-04-29 13:52 48.31777 9.41305 35173 ft 475 kts 164°
2026-04-29 13:53 48.25525 9.44471 35151 ft 475 kts 165°
2026-04-29 13:53 48.19231 9.47656 35182 ft 476 kts 165°
2026-04-29 13:54 48.12960 9.50832 35180 ft 477 kts 165°
2026-04-29 13:54 48.06646 9.54007 35167 ft 477 kts 165°
2026-04-29 13:55 48.00505 9.57802 35162 ft 486 kts 152°
2026-04-29 13:55 47.94897 9.63488 35161 ft 488 kts 148°
2026-04-29 13:56 47.89348 9.69253 35154 ft 488 kts 149°
2026-04-29 13:56 47.83725 9.74977 35164 ft 488 kts 149°
2026-04-29 13:57 47.78125 9.80652 35131 ft 490 kts 150°
2026-04-29 13:57 47.73439 9.85402 35144 ft 490 kts 150°
2026-04-29 13:58 47.66831 9.92080 35141 ft 490 kts 150°
2026-04-29 13:58 47.61205 9.97740 35137 ft 490 kts 150°
2026-04-29 13:59 47.55575 10.03401 35123 ft 489 kts 150°
2026-04-29 13:59 47.49925 10.09069 35150 ft 489 kts 150°
2026-04-29 14:00 47.44300 10.14689 35151 ft 490 kts 150°
2026-04-29 14:00 47.38673 10.20307 35155 ft 489 kts 150°
2026-04-29 14:01 47.33008 10.25936 35137 ft 488 kts 150°
2026-04-29 14:01 47.27417 10.31475 35153 ft 486 kts 150°
2026-04-29 14:02 47.21794 10.37041 35170 ft 485 kts 150°
2026-04-29 14:02 47.16184 10.42576 35177 ft 487 kts 150°
2026-04-29 14:03 47.10565 10.48107 35161 ft 487 kts 150°
2026-04-29 14:03 47.04827 10.53200 35177 ft 478 kts 162°
2026-04-29 14:04 46.98521 10.56250 35186 ft 474 kts 169°
2026-04-29 14:04 46.92214 10.58998 35188 ft 474 kts 168°
2026-04-29 14:05 46.85893 10.61828 35182 ft 474 kts 168°
2026-04-29 14:05 46.79637 10.64641 35213 ft 473 kts 168°
2026-04-29 14:06 46.73334 10.67441 34977 ft 467 kts 171°
2026-04-29 14:06 46.70146 10.68300 34648 ft 463 kts 179°
2026-04-29 14:06 46.66975 10.68834 34353 ft 464 kts 180°
2026-04-29 14:07 46.63770 10.69326 34109 ft 464 kts 180°
2026-04-29 14:07 46.60546 10.69825 33823 ft 465 kts 179°
2026-04-29 14:07 46.57306 10.70340 33563 ft 466 kts 179°
2026-04-29 14:07 46.54110 10.70856 33289 ft 467 kts 179°
2026-04-29 14:08 46.50870 10.71378 32812 ft 465 kts 179°
2026-04-29 14:08 46.47677 10.71893 32118 ft 465 kts 179°
2026-04-29 14:08 46.44453 10.72413 31356 ft 466 kts 178°
2026-04-29 14:08 46.41216 10.72941 30628 ft 466 kts 178°
2026-04-29 14:09 46.38036 10.73458 29854 ft 467 kts 178°
2026-04-29 14:09 46.34786 10.73978 28960 ft 469 kts 178°
2026-04-29 14:09 46.31535 10.74495 28083 ft 471 kts 178°
2026-04-29 14:09 46.28276 10.75017 27291 ft 471 kts 178°
2026-04-29 14:10 46.25040 10.75537 26546 ft 470 kts 178°
2026-04-29 14:10 46.21795 10.76059 25826 ft 469 kts 178°
2026-04-29 14:10 46.18539 10.76578 25145 ft 467 kts 178°
2026-04-29 14:10 46.15304 10.77097 24443 ft 465 kts 178°
2026-04-29 14:11 46.12087 10.77608 23733 ft 464 kts 178°
2026-04-29 14:11 46.08925 10.78112 22961 ft 463 kts 178°
2026-04-29 14:11 46.05727 10.78619 22127 ft 459 kts 178°
2026-04-29 14:11 46.02570 10.79118 21368 ft 452 kts 177°
2026-04-29 14:12 45.99452 10.79613 20639 ft 445 kts 177°
2026-04-29 14:12 45.97419 10.79934 20177 ft 441 kts 176°
2026-04-29 14:12 45.93417 10.80565 19301 ft 431 kts 176°
2026-04-29 14:12 45.91409 10.80882 18873 ft 426 kts 176°
2026-04-29 14:13 45.88517 10.81338 18251 ft 419 kts 176°
2026-04-29 14:13 45.85636 10.81793 17596 ft 411 kts 176°
2026-04-29 14:13 45.82805 10.82236 16945 ft 404 kts 177°
2026-04-29 14:13 45.80038 10.82364 16343 ft 400 kts 183°
2026-04-29 14:14 45.77252 10.82301 15761 ft 400 kts 183°
2026-04-29 14:14 45.74467 10.82221 15193 ft 399 kts 183°
2026-04-29 14:14 45.71678 10.82140 14571 ft 400 kts 183°
2026-04-29 14:14 45.68924 10.82063 13961 ft 401 kts 182°
2026-04-29 14:15 45.66132 10.81989 13300 ft 399 kts 183°
2026-04-29 14:15 45.63382 10.81536 12670 ft 394 kts 194°
2026-04-29 14:15 45.60730 10.80562 12095 ft 391 kts 197°
2026-04-29 14:15 45.58141 10.79567 11573 ft 385 kts 197°
2026-04-29 14:16 45.55593 10.78595 11259 ft 371 kts 197°
2026-04-29 14:16 45.53164 10.77677 11032 ft 356 kts 197°
2026-04-29 14:16 45.50799 10.76783 10844 ft 342 kts 197°
2026-04-29 14:16 45.48572 10.75942 10515 ft 326 kts 197°
2026-04-29 14:17 45.46413 10.75127 10163 ft 312 kts 197°
2026-04-29 14:17 45.44346 10.74353 9949 ft 301 kts 197°
2026-04-29 14:17 45.42350 10.73606 9754 ft 290 kts 197°
2026-04-29 14:17 45.40454 10.72736 9299 ft 287 kts 207°
2026-04-29 14:18 45.38812 10.71135 8806 ft 284 kts 224°
2026-04-29 14:18 45.37421 10.69176 8026 ft 287 kts 226°
2026-04-29 14:18 45.36012 10.67112 7216 ft 292 kts 226°
2026-04-29 14:18 45.34613 10.65062 6693 ft 288 kts 226°
2026-04-29 14:19 45.33265 10.63017 6510 ft 278 kts 227°
2026-04-29 14:19 45.31970 10.61036 6364 ft 267 kts 226°
2026-04-29 14:19 45.30722 10.59151 6214 ft 255 kts 226°
2026-04-29 14:19 45.29532 10.57385 6067 ft 242 kts 225°
2026-04-29 14:20 45.28383 10.55715 5930 ft 230 kts 225°
2026-04-29 14:20 45.27219 10.54238 5767 ft 217 kts 211°
2026-04-29 14:20 45.25835 10.53575 5548 ft 212 kts 182°
2026-04-29 14:20 45.24427 10.53962 5401 ft 209 kts 148°
2026-04-29 14:21 45.23310 10.55274 5275 ft 208 kts 133°
2026-04-29 14:21 45.22309 10.56757 5065 ft 207 kts 133°
2026-04-29 14:21 45.21357 10.58250 4858 ft 205 kts 123°
2026-04-29 14:21 45.20846 10.60113 4664 ft 203 kts 94°
2026-04-29 14:22 45.21095 10.61998 4437 ft 202 kts 63°
2026-04-29 14:22 45.21965 10.63615 4171 ft 201 kts 45°
2026-04-29 14:22 45.23021 10.64879 3916 ft 196 kts 48°
2026-04-29 14:22 45.23981 10.66234 3632 ft 194 kts 49°
2026-04-29 14:23 45.24939 10.67614 3380 ft 192 kts 49°
2026-04-29 14:23 45.25826 10.68895 3316 ft 173 kts 49°
2026-04-29 14:23 45.26628 10.70056 3207 ft 161 kts 50°
2026-04-29 14:23 45.27386 10.71155 3066 ft 151 kts 51°
2026-04-29 14:24 45.28129 10.72234 2965 ft 154 kts 50°
2026-04-29 14:24 45.28872 10.73311 2950 ft 154 kts 50°
2026-04-29 14:24 45.29618 10.74392 2813 ft 150 kts 51°
2026-04-29 14:24 45.30342 10.75442 2647 ft 143 kts 50°
2026-04-29 14:25 45.31027 10.76436 2462 ft 140 kts 50°
2026-04-29 14:25 45.31698 10.77409 2282 ft 131 kts 51°
2026-04-29 14:25 45.32319 10.78311 2095 ft 128 kts 51°
2026-04-29 14:25 45.32942 10.79216 1916 ft 127 kts 50°
2026-04-29 14:26 45.33565 10.80120 1746 ft 128 kts 50°
2026-04-29 14:26 45.34180 10.81016 1570 ft 128 kts 51°
2026-04-29 14:26 45.34801 10.81918 1392 ft 126 kts 52°
2026-04-29 14:26 45.35416 10.82820 1197 ft 127 kts 50°
2026-04-29 14:27 45.36031 10.83702 1028 ft 126 kts 51°
2026-04-29 14:27 45.36655 10.84620 848 ft 129 kts 52°
2026-04-29 14:27 45.37283 10.85541 717 ft 132 kts 50°
2026-04-29 14:28 45.38550 10.87365 360 ft 128 kts 49°
2026-04-29 14:28 45.39143 10.88223 248 ft 113 kts 50°
2026-04-29 14:28 45.39600 10.88896 245 ft 71 kts 46°
2026-04-29 14:28 45.39866 10.89283 242 ft 50 kts 45°
2026-04-29 14:29 45.40106 10.89631 244 ft 36 kts 46°
2026-04-29 14:29 45.40236 10.89824 244 ft 24 kts 46°
2026-04-29 14:29 45.40292 10.90008 243 ft 12 kts 78°
2026-04-29 14:29 45.40308 10.90095 242 ft 6 kts 75°
2026-04-29 14:30 45.40320 10.90160 242 ft 8 kts 76°
2026-04-29 14:30 45.40335 10.90246 242 ft 10 kts 76°
2026-04-29 14:30 45.40370 10.90342 242 ft 12 kts 45°
2026-04-29 14:30 45.40435 10.90435 242 ft 14 kts 45°
2026-04-29 14:31 45.40508 10.90542 242 ft 16 kts 46°
2026-04-29 14:31 45.40572 10.90670 242 ft 13 kts 108°
2026-04-29 14:31 45.40535 10.90732 242 ft 0 kts 137°
2026-04-29 14:32 45.40533 10.90734 242 ft 1 kts 137°
2026-04-29 14:32 45.40517 10.90752 242 ft 4 kts 156°
2026-04-29 14:32 45.40505 10.90753 242 ft 2 kts 186°
2026-04-29 14:32 45.40486 10.90744 242 ft 0 kts 208°
2026-04-29 14:33 45.40478 10.90738 242 ft 2 kts 212°
2026-04-29 14:33 45.40468 10.90725 242 ft 2 kts 222°
2026-04-29 14:33 45.40450 10.90700 242 ft 5 kts 224°
2026-04-29 14:33 45.40423 10.90660 242 ft 7 kts 227°
2026-04-29 14:34 45.40386 10.90603 242 ft 7 kts 227°
2026-04-29 14:34 45.40356 10.90601 242 ft 6 kts 150°
2026-04-29 14:34 45.40336 10.90630 242 ft 1 kts 135°
2026-04-29 14:34 45.40330 10.90638 242 ft 0 kts 135°